Location: Carrières
(48.9495°N, 2.0407°E)
Time: 18:18:53
(UTC+00:00)

Explorer 7 - All Passes

Search period start: 23 April 2024 00:00
Search period end: 03 May 2024 00:00
Orbit: 468 x 628 km, 50.3° (Epoch: 22 April)

Date Brightness Start Highest point End Pass type
(mag) Time Alt. Az. Time Alt. Az. Time Alt. Az.
23 Apr - 09:46:11 10° SSW 09:50:24 37° SSE 09:54:40 10° E daylight
23 Apr - 11:25:25 10° WSW 11:30:02 89° NNW 11:34:41 10° ENE daylight
23 Apr - 13:05:27 10° W 13:10:06 77° N 13:14:40 10° E daylight
23 Apr - 14:45:26 10° WNW 14:49:57 57° SSW 14:54:20 10° SE daylight
23 Apr - 16:26:15 10° W 16:29:05 17° SW 16:31:53 10° S daylight
24 Apr - 08:03:27 10° SSE 08:05:10 12° SE 08:06:53 10° ESE daylight
24 Apr - 09:39:47 10° SW 09:44:08 45° SSE 09:48:33 10° ENE daylight
24 Apr - 11:19:15 10° W 11:23:53 83° N 11:28:31 10° ENE daylight
24 Apr - 12:59:17 10° WNW 13:03:57 80° N 13:08:31 10° E daylight
24 Apr - 14:39:17 10° WNW 14:43:43 48° SSW 14:48:01 10° SE daylight
24 Apr - 16:20:41 10° WSW 16:22:43 13° SW 16:24:43 10° SSW daylight
25 Apr - 07:56:06 10° S 07:58:45 15° SE 08:01:27 10° E daylight
25 Apr - 09:33:26 10° SW 09:37:52 54° SSE 09:42:23 10° ENE daylight
25 Apr - 11:13:05 10° W 11:17:42 78° N 11:22:20 10° E daylight
25 Apr - 12:53:06 10° WNW 12:57:46 86° NNE 13:02:20 10° ESE daylight
25 Apr - 14:33:07 10° W 14:37:26 40° SSW 14:41:37 10° SE daylight
26 Apr - 07:49:08 10° S 07:52:21 19° SE 07:55:39 10° E daylight
26 Apr - 09:27:07 10° SW 09:31:36 63° SSE 09:36:12 10° ENE daylight
26 Apr - 11:06:54 10° W 11:11:30 75° N 11:16:09 10° E daylight
26 Apr - 12:46:54 10° WNW 12:51:32 87° SSW 12:56:07 10° ESE daylight
26 Apr - 14:26:59 10° W 14:31:06 33° SW 14:35:07 10° SSE daylight
27 Apr - 07:42:21 10° SSW 07:45:57 24° SE 07:49:39 10° E daylight
27 Apr - 09:20:48 10° WSW 09:25:20 73° SSE 09:29:58 10° ENE daylight
27 Apr - 11:00:41 10° W 11:05:18 74° N 11:09:56 10° E daylight
27 Apr - 12:40:39 10° WNW 12:45:18 78° SSW 12:49:52 10° ESE daylight
27 Apr - 14:20:52 10° W 14:24:44 27° SW 14:28:31 10° SSE daylight
28 Apr - 07:35:40 10° SSW 07:39:33 30° SE 07:43:33 10° E daylight
28 Apr - 09:14:30 10° WSW 09:19:03 83° SSE 09:23:42 10° ENE daylight
28 Apr - 10:54:27 10° W 10:59:04 74° N 11:03:41 10° E daylight
28 Apr - 12:34:24 10° WNW 12:39:00 68° SSW 12:43:32 10° ESE daylight
28 Apr - 14:14:48 10° W 14:18:19 22° SW 14:21:46 10° S daylight
29 Apr - 07:29:04 10° SSW 07:33:09 36° SE 07:37:21 10° E daylight
29 Apr - 09:08:13 10° WSW 09:12:46 89° NNW 09:17:25 10° ENE daylight
29 Apr - 10:48:11 10° W 10:52:48 76° N 10:57:26 10° E daylight
29 Apr - 12:28:07 10° WNW 12:32:40 58° SSW 12:37:09 10° SE daylight
29 Apr - 14:08:49 10° W 14:11:51 17° SW 14:14:50 10° S daylight
30 Apr - 05:46:32 10° SSE 05:47:50 11° SE 05:49:09 10° ESE daylight
30 Apr - 07:22:32 10° SW 07:26:45 44° SSE 07:31:07 10° ENE daylight
30 Apr - 09:01:55 10° W 09:06:28 83° N 09:11:06 10° ENE daylight
30 Apr - 10:41:54 10° WNW 10:46:30 80° N 10:51:09 10° E daylight
30 Apr - 12:21:49 10° WNW 12:26:17 49° SSW 12:30:42 10° SE daylight
30 Apr - 14:03:02 10° WSW 14:05:20 14° SW 14:07:36 10° SSW daylight
01 May - 05:38:54 10° SSE 05:41:18 14° SE 05:43:44 10° E daylight
01 May - 07:16:02 10° SW 07:20:21 52° SSE 07:24:49 10° ENE daylight
01 May - 08:55:36 10° W 09:00:08 78° N 09:04:47 10° E daylight
01 May - 10:35:34 10° WNW 10:40:11 86° NNE 10:44:50 10° ESE daylight
01 May - 12:15:32 10° WNW 12:19:52 41° SSW 12:24:10 10° SE daylight
01 May - 13:57:59 10° WSW 13:58:47 10° SW 13:59:34 10° SW daylight
02 May - 05:31:45 10° S 05:34:45 18° SE 05:37:50 10° E daylight
02 May - 07:09:34 10° SW 07:13:56 62° SSE 07:18:28 10° ENE daylight
02 May - 08:49:17 10° W 08:53:49 75° N 08:58:26 10° E daylight
02 May - 10:29:13 10° WNW 10:33:50 87° SSW 10:38:28 10° ESE daylight
02 May - 12:09:15 10° W 12:13:25 34° SW 12:17:32 10° SSE daylight
